CZ-3B R/B, 44867

Orbit data source: Space-Track

CZ-3B R/B, 44867 is space debris in LEO originally from a launch on Mon, 16 Dec 2019 UTC launched from the Xichang Space Center, China (XSC). Debris objects in space refer to the collection of defunct objects orbiting the Earth. Examples of debris include non-operational satellites, rocket bodies, and fragments generated from explosions, collisions, or faulty payload assembly.

Loading next visibility...
Identifier
44867, 2019-090D
Orbit
LEO
Country
Flag of CNCN / PRC
Related business
Manufacturer
CALT
Mission
Spacecraft
Bus & Motor
CZ-3A STAGE 3, Unknown motor
Mass
~2,800 kg wet, ~2,800 kg dry
Launch date (UTC)
2019-12-16 (6 years ago)
Launch vehicle
Unknown
Launch site
Xichang Space Center, China (XSC)
Object type
Payload
Rocket body
Debris
Shape & HBR
Cyl + 1 Nozzle, 6.2 m
Radar Cross Section
32.704 m², Large (>1 m²)

Expand to show TLE details & history
Last TLE update: 20 hours ago

TLE from 20 hours ago
0 CZ-3B R/B
1 44867U 19090D   25260.08756637  .01438983  20459-5  23950-3 0  9998
2 44867  54.8529 129.9129 2407866 269.1215  63.5678 10.94199924106589
Epoch: 2025-09-17T02:06Z
TLE epoch observation values (Epoch: 2025-09-17T02:06:05.734Z)
Latitude
-0.00006°
Longitude
102.12042°
Altitude
1,729.389 km
Speed
7.201 km/s
True Right ascension
08h 39m 39s
True Declination
0° 00' 00"
Sunlit
Object was in daylight at epoch
Visualization orbit readout
Latitude
Unknown
Longitude
Unknown
Altitude
Unknown
Speed
Unknown
Apparent Right ascension
Unknown
Apparent Declination
Unknown
Sunlit
N/A
Visualization observer readout
Local Sidereal Time
14:34:27
Azimuth
Unknown
Elevation
Unknown
Doppler factor
Unknown
Orbital elements
Apogee altitude
4,255.959 km
Perigee altitude
128.662 km
Semi-major axis
8,570.447 km
Eccentricity
0.24079
Inclination
54.8529°
RAAN
129.9129°
Arg. of periapsis
269.1215°
True anomaly
90.97045°
Mean anomaly
63.5678°
Eccentric anomaly
77.01085°
Mean motion
2.73551 °/min
Orbital period
131.6 mins
BSTAR
0.0002395
Loading maneuver chart data...
Computing Atmospheric mass density...
Loading historical data...
Loading historical data...
Loading historical data...
Loading historical data...
Loading historical data...
Loading historical data...
Loading historical data...
Other satellites on launch #90 in the year 2019 (2019-12-16 UTC)

Documentation

Showing up to 5 results
|